Temperature
16 16 16 16 16 16 15 15 15 15 15 16 16 16 16 16 16 16 16 17 16 16 16 16 16 16 16 16 16 16 15 15 15 15 15 15 15 15
16 16 16 15 15 15 15 15 15 15 15 15 15 15 16 16 16 16 16 16 16 16 16 16 16 16 16 16 16 16 15 15 15 15 15 15 15 15
15 15 15 15 15 15 15 15 15 14 14 15 15 15 15 15 15 16 16 16 16 16 16 16 16 16 16 16 16 16 15 15 15 15 15 15 15 15
15 15 15 15 15 14 14 14 14 14 14 14 14 15 15 15 15 15 15 15 15 15 15 15 15 15 15 15 15 15 15 15 15 15 15 15 15 14
14 14 14 14 14 14 14 14 14 14 14 14 14 14 14 14 14 15 15 15 15 15 15 15 15 15 15 15 15 15 15 15 15 15 14 14 14 14
14 14 14 14 14 14 14 14 14 14 13 13 13 14 14 14 14 14 14 15 15 15 15 15 15 15 15 15 15 15 15 15 15 14 14 14 14 14
14 14 14 14 14 13 13 13 13 13 13 13 13 13 13 13 13 14 14 14 14 14 14 15 15 15 15 15 15 15 15 15 14 14 14 14 14 14
14 14 14 13 13 13 13 13 13 13 13 13 13 13 13 13 13 13 13 13 14 14 14 14 14 14 14 14 14 15 15 15 14 14 14 14 14 14
13 13 13 13 13 13 13 13 13 13 13 12 12 13 13 13 13 13 13 13 13 13 13 14 14 14 14 14 14 14 14 14 14 14 14 14 14 14
13 13 13 13 13 13 13 13 12 12 12 12 12 13 13 13 13 13 13 13 13 13 13 13 13 13 14 14 14 14 14 14 14 14 14 14 13 13
13 13 13 13 13 13 12 12 12 12 12 12 12 12 13 13 12 12 12 12 12 13 13 13 13 13 13 13 13 13 13 13 13 13 13 13 13 13
13 13 13 13 13 12 12 12 12 12 12 12 12 12 12 12 12 12 12 12 12 12 13 12 12 12 12 13 13 13 13 13 13 13 13 13 13 13
13 13 13 13 12 12 12 12 12 12 12 12 12 12 12 12 12 12 12 12 12 12 12 12 12 12 12 12 12 12 12 12 12 12 12 12 12 12
12 12 12 12 12 12 12 12 12 12 12 12 12 12 12 12 12 11 11 11 11 11 11 12 11 11 11 11 11 12 12 12 12 12 12 12 12 12
12 12 12 12 12 12 12 12 12 12 12 11 11 11 11 11 11 11 11 11 11 11 11 11 11 11 11 11 11 11 11 11 11 11 11 11 11 11
12 12 11 12 11 11 11 11 11 11 11 11 11 11 11 11 11 11 11 11 11 11 11 11 11 11 11 11 11 11 11 11 11 11 11 11 11 11
11 11 11 11 11 11 11 11 11 11 11 10 10 10 10 10 10 10 10 10 10 10 10 11 11 10 10 10 10 10 10 10 10 11 11 11 11 11
11 11 11 10 10 10 10 10 10 10 10 10 10 10 10 10 10 10 10 10 10 10 10 10 10 10 10 10 10 10 10 10 10 10 10 10 10 10
10 10 10 10 10 10 10 10 10 10 9 9 9 9 9 9 9 9 9 9 9 9 9 9 9 9 9 9 9 10 10 10 10 10 10 10 10 10
10 10 9 9 9 9 9 9 9 9 9 9 9 9 9 9 9 9 9 9 9 9 9 9 9 9 9 9 9 9 9 9 9 9 9 9 10 10
10 9 9 9 9 9 9 9 9 9 9 9 9 9 9 9 9 9 9 9 9 9 8 8 9 9 9 9 9 9 9 9 9 9 9 9 9 9
9 9 9 9 9 9 9 9 8 8 8 8 8 8 8 8 8 8 8 8 8 8 8 8 8 8 8 8 8 9 9 9 9 9 9 9 9 8
9 9 9 9 9 8 8 8 8 8 8 8 8 8 8 8 8 8 8 8 8 8 8 8 8 8 8 8 8 8 8 8 8 8 8 8 8 8
Wind_Speed
1 2 1 2 1 1 1 1 2 1 3 3 2 3 2 4 6 8 8 9 11 12 13 15 15 15 15 15 15 16 16 17 16 16 16 16 16 16
1 2 2 2 2 2 1 1 1 3 2 3 3 3 3 3 5 6 8 9 11 12 13 14 14 14 15 15 15 15 15 15 15 15 16 16 16 15
1 1 2 2 1 2 1 1 1 1 2 4 3 3 2 3 3 4 5 6 7 10 12 14 14 14 14 15 15 15 15 15 15 15 15 15 15 15
2 1 2 2 1 2 1 1 1 1 2 4 4 3 3 4 3 3 3 4 5 8 11 13 13 14 14 15 14 15 15 15 15 15 15 15 15 15
2 2 2 1 2 2 2 2 2 2 1 2 4 3 3 3 3 3 3 3 4 6 8 11 13 13 13 13 14 15 15 15 15 15 15 15 15 15
2 3 3 3 3 3 3 3 2 2 2 2 4 4 3 3 2 2 3 3 4 5 5 7 9 12 12 13 13 14 15 15 15 15 15 16 15 15
3 4 4 4 5 4 3 3 2 2 2 3 4 3 3 3 3 2 4 4 4 3 2 3 3 4 7 11 12 13 15 14 14 14 14 15 15 15
4 5 5 4 5 6 6 4 3 3 4 3 4 5 6 5 4 4 3 2 3 3 2 4 3 4 5 6 9 12 14 14 14 14 14 14 15 15
4 4 4 4 4 4 5 6 6 6 6 5 6 7 6 5 4 4 4 4 5 3 2 4 3 4 4 6 8 9 11 12 12 12 12 12 13 14
4 3 4 4 5 3 3 4 5 6 7 5 6 8 7 6 5 5 5 5 4 3 2 3 3 3 4 4 7 9 10 11 11 11 11 11 12 13
4 3 3 4 5 4 3 4 6 6 7 7 7 8 8 7 4 2 2 2 4 3 2 2 2 3 3 3 4 7 9 9 10 10 10 9 10 10
4 4 5 5 6 4 3 4 6 6 6 6 5 6 6 6 5 4 4 3 3 3 2 2 2 1 2 2 2 2 4 6 7 8 8 7 7 6
3 4 4 7 7 6 5 4 7 6 5 4 4 4 4 3 3 3 3 3 3 4 3 2 1 1 2 2 2 2 2 2 3 3 5 6 6 6
3 4 5 8 8 7 5 6 7 4 3 3 3 3 4 4 4 4 4 4 4 5 4 2 2 3 2 2 3 2 1 1 2 2 2 3 4 5
3 6 7 8 7 5 5 6 4 2 2 2 3 4 4 4 3 3 2 2 3 3 3 2 2 3 2 3 2 2 1 1 2 2 2 2 3 3
4 6 7 6 5 5 5 4 3 2 2 3 4 4 3 2 3 2 2 2 2 3 3 2 2 3 2 2 2 2 2 2 2 2 2 2 2 3
3 2 2 3 4 4 4 4 3 3 3 3 3 3 3 3 3 2 2 1 1 3 3 3 2 0 1 1 1 2 1 1 1 2 1 2 2 2
1 1 2 3 3 3 3 4 3 3 4 3 3 3 3 3 3 2 2 2 2 2 2 2 1 2 2 2 1 2 1 1 1 1 1 2 3 2
1 1 2 2 2 3 3 3 3 4 4 3 3 3 3 3 2 2 2 1 2 3 2 2 1 1 1 2 3 1 2 1 1 0 1 2 2 3
1 1 2 2 2 2 3 3 3 4 3 3 3 3 3 2 2 2 2 2 2 2 2 2 2 2 3 3 2 2 1 2 2 2 1 0 0 1
2 2 2 2 2 2 3 3 3 3 3 3 3 3 3 2 2 3 2 2 2 2 2 3 4 3 1 1 0 2 1 0 1 2 2 1 0 1
2 2 2 2 2 2 3 3 3 3 3 3 3 3 3 2 3 3 2 2 2 2 3 3 2 1 1 2 2 2 1 1 2 2 1 3 3 3
3 2 2 3 3 3 3 3 3 3 3 3 3 3 3 3 3 3 3 2 2 2 1 2 1 1 1 2 2 1 1 1 0 1 2 2 1 2
Wind_Direction
12 18 23 357 10 7 55 147 164 253 292 295 303 305 277 244 243 229 229 237 236 233 231 231 231 231 227 224 223 220 219 219 219 219 221 223 224 225
13 28 14 352 358 7 12 21 149 177 239 276 266 290 302 293 270 245 233 239 237 233 231 229 229 229 224 224 225 222 220 218 218 220 222 224 224 223
357 15 333 343 358 351 354 353 336 171 237 279 273 287 284 298 300 269 251 240 245 244 239 231 228 230 228 226 226 224 222 220 220 220 222 225 224 224
304 311 304 326 339 324 326 310 281 247 224 274 291 294 278 284 286 290 285 266 252 255 244 234 229 230 231 227 226 225 223 223 223 223 225 224 226 226
258 251 268 283 293 287 285 283 278 296 260 257 284 286 281 296 307 301 289 290 278 270 252 240 236 234 233 232 232 229 225 226 225 226 226 225 225 225
262 247 255 251 253 261 274 275 275 284 281 276 280 287 285 293 301 295 302 289 285 278 266 250 241 241 240 238 236 234 227 226 226 227 229 229 226 225
284 270 262 257 255 255 268 267 266 263 269 269 275 286 287 300 286 269 279 284 277 256 268 264 242 243 247 243 240 235 225 225 227 228 229 230 228 226
278 279 277 276 285 278 278 275 252 245 247 252 263 267 268 265 263 269 267 276 282 256 231 262 231 242 244 240 240 233 222 222 223 225 228 229 227 226
270 276 285 299 301 296 291 293 287 270 246 236 246 252 255 255 252 267 262 249 252 254 227 260 247 247 247 246 239 229 216 214 217 220 224 228 229 227
273 262 261 282 295 297 304 307 297 287 268 256 245 250 253 247 233 242 251 263 273 267 215 240 255 254 258 250 241 224 213 214 220 225 227 229 231 231
289 284 274 275 292 297 297 297 299 294 288 278 264 264 267 269 254 250 270 276 282 277 242 225 253 272 272 263 254 225 216 220 224 225 227 233 234 232
301 296 293 288 298 299 277 281 289 289 297 304 300 293 284 283 269 228 224 240 257 267 252 219 247 254 286 276 263 244 225 227 224 221 224 229 228 221
301 300 298 305 305 298 282 267 270 281 283 283 285 289 293 292 278 256 231 219 231 250 248 196 227 233 225 273 287 251 213 212 214 226 232 232 221 203
287 293 299 309 308 304 296 291 294 296 290 292 290 292 290 288 279 268 256 242 239 243 244 209 214 220 227 262 276 290 275 229 207 211 226 221 218 212
288 303 313 318 318 314 313 315 315 314 312 299 285 277 272 274 284 292 288 279 288 290 286 250 228 229 216 230 251 253 270 261 212 202 210 206 201 195
314 315 319 326 336 331 331 334 331 312 283 280 283 283 291 297 287 274 274 287 310 310 319 312 258 216 233 257 232 258 248 228 223 219 213 219 210 194
317 331 353 351 347 343 339 337 335 335 317 296 292 293 291 288 281 268 253 258 274 290 311 332 348 338 190 199 238 258 257 264 241 216 196 210 226 209
38 355 340 334 328 326 329 330 330 321 310 303 295 288 286 283 285 279 246 237 251 269 282 296 348 18 2 337 242 228 245 255 271 237 185 188 220 223
76 320 308 303 307 310 312 313 313 308 307 307 300 292 287 288 285 282 285 271 265 266 271 268 236 182 234 289 301 246 211 257 277 244 213 190 207 227
344 287 279 285 293 303 305 305 309 318 319 311 305 304 303 298 290 273 265 272 271 270 279 282 263 226 214 226 243 272 238 206 213 224 245 254 294 6
289 291 285 279 284 293 296 295 300 307 312 313 316 315 313 309 298 285 273 275 266 269 270 276 268 246 223 128 233 283 289 311 165 189 188 160 132 63
271 273 276 274 276 285 290 297 308 310 313 311 309 310 307 302 295 291 274 263 260 253 264 279 285 273 185 186 225 252 273 324 4 36 107 165 173 186
274 274 275 276 279 284 287 292 294 291 296 301 297 295 300 303 295 291 277 264 255 259 272 287 313 300 237 207 216 227 234 234 221 51 357 359 114 140
Height
1503 1503 1502 1502 1501 1501 1500 1499 1499 1497 1496 1496 1495 1495 1494 1494 1493 1492 1492 1492 1491 1491 1492 1492 1492 1492 1492 1492 1493 1495 1496 1498 1499 1501 1503 1504 1506 1507
1502 1501 1500 1500 1499 1499 1498 1497 1497 1496 1495 1494 1493 1493 1492 1491 1490 1489 1488 1488 1488 1487 1488 1488 1488 1488 1488 1489 1490 1491 1492 1494 1495 1497 1499 1500 1502 1503
1500 1499 1499 1498 1497 1497 1496 1495 1494 1494 1492 1491 1491 1490 1489 1488 1487 1486 1485 1484 1484 1483 1483 1484 1484 1484 1485 1485 1486 1487 1488 1490 1491 1493 1494 1496 1497 1499
1498 1497 1497 1496 1495 1494 1493 1492 1491 1490 1489 1487 1487 1486 1485 1485 1484 1483 1482 1481 1480 1480 1480 1480 1480 1480 1480 1481 1482 1483 1484 1485 1487 1489 1490 1491 1493 1494
1496 1495 1494 1493 1492 1491 1490 1489 1488 1487 1486 1485 1483 1482 1482 1481 1480 1479 1478 1477 1477 1476 1475 1476 1476 1476 1477 1477 1478 1479 1480 1481 1483 1484 1485 1487 1488 1489
1493 1492 1491 1490 1489 1488 1487 1486 1485 1484 1483 1482 1480 1479 1478 1477 1476 1475 1474 1473 1473 1473 1472 1471 1472 1472 1472 1473 1474 1474 1475 1477 1478 1479 1480 1482 1482 1484
1491 1490 1489 1488 1486 1485 1484 1482 1481 1480 1479 1478 1476 1475 1474 1473 1472 1472 1470 1469 1469 1469 1468 1467 1467 1467 1468 1468 1469 1469 1470 1472 1473 1474 1475 1476 1477 1478
1488 1487 1486 1485 1483 1482 1481 1479 1478 1476 1475 1474 1473 1472 1471 1470 1469 1468 1467 1466 1464 1465 1464 1463 1463 1463 1464 1464 1464 1465 1466 1467 1468 1469 1470 1471 1472 1473
1485 1484 1483 1482 1480 1479 1477 1475 1474 1473 1472 1471 1469 1468 1467 1467 1466 1464 1463 1462 1461 1461 1461 1459 1459 1459 1459 1459 1459 1460 1461 1462 1463 1464 1465 1466 1467 1467
1482 1481 1480 1478 1477 1475 1473 1471 1470 1468 1468 1467 1465 1464 1463 1463 1462 1461 1460 1459 1458 1458 1457 1456 1455 1455 1455 1454 1454 1455 1456 1457 1458 1459 1460 1460 1461 1462
1479 1478 1476 1475 1473 1472 1470 1468 1466 1464 1464 1462 1461 1460 1459 1459 1458 1457 1456 1455 1453 1453 1453 1452 1451 1451 1450 1450 1450 1451 1451 1452 1453 1454 1454 1455 1456 1457
1475 1474 1473 1471 1470 1468 1466 1464 1462 1460 1459 1458 1457 1456 1455 1455 1454 1453 1452 1451 1450 1449 1449 1449 1447 1447 1446 1446 1446 1446 1446 1447 1448 1449 1449 1450 1451 1451
1472 1471 1470 1468 1466 1464 1462 1460 1458 1457 1456 1455 1454 1452 1452 1451 1450 1449 1449 1448 1447 1446 1446 1445 1444 1444 1443 1442 1441 1441 1442 1442 1443 1444 1444 1445 1446 1446
1470 1468 1467 1465 1463 1461 1459 1457 1456 1454 1453 1451 1450 1448 1448 1447 1446 1446 1445 1444 1443 1443 1442 1441 1440 1440 1439 1438 1437 1437 1438 1438 1439 1439 1440 1440 1441 1442
1467 1466 1464 1462 1460 1458 1456 1454 1453 1451 1449 1447 1446 1445 1444 1444 1443 1442 1441 1440 1439 1439 1438 1438 1437 1436 1435 1434 1434 1434 1434 1434 1435 1435 1435 1436 1437 1438
1466 1464 1462 1460 1458 1456 1454 1452 1450 1448 1447 1445 1443 1442 1441 1440 1439 1439 1438 1436 1435 1434 1434 1434 1433 1433 1432 1431 1431 1430 1430 1430 1431 1431 1431 1432 1433 1434
1463 1461 1459 1457 1455 1453 1451 1449 1447 1446 1444 1442 1440 1439 1438 1436 1435 1435 1434 1433 1432 1431 1430 1430 1430 1429 1429 1428 1428 1427 1427 1427 1427 1428 1428 1428 1430 1431
1460 1458 1456 1454 1452 1451 1449 1447 1445 1443 1441 1439 1438 1436 1434 1433 1432 1431 1430 1429 1428 1428 1427 1427 1426 1426 1426 1426 1426 1425 1425 1425 1425 1426 1426 1426 1426 1428
1458 1456 1454 1452 1451 1449 1447 1445 1443 1441 1439 1437 1435 1433 1431 1430 1429 1428 1427 1426 1425 1425 1424 1424 1424 1423 1423 1423 1424 1424 1423 1423 1423 1423 1423 1423 1423 1425
1456 1454 1452 1451 1449 1447 1445 1443 1440 1438 1436 1434 1432 1430 1429 1427 1426 1425 1424 1424 1423 1422 1422 1421 1421 1421 1421 1421 1421 1421 1422 1422 1421 1421 1421 1421 1422 1423
1454 1452 1450 1448 1446 1445 1443 1440 1438 1436 1433 1431 1429 1428 1426 1425 1423 1422 1421 1421 1420 1419 1419 1418 1418 1419 1419 1418 1418 1418 1419 1420 1420 1420 1420 1420 1420 1421
1451 1449 1448 1446 1444 1442 1440 1438 1436 1433 1431 1429 1427 1425 1423 1422 1421 1419 1418 1418 1417 1416 1416 1416 1416 1416 1416 1415 1415 1415 1416 1418 1418 1419 1419 1419 1418 1418
1449 1447 1445 1443 1441 1439 1437 1435 1433 1430 1428 1426 1424 1422 1421 1420 1418 1417 1416 1415 1414 1413 1413 1413 1413 1413 1412 1412 1413 1413 1414 1415 1416 1416 1417 1418 1418 1419